[sarex] 2 Line ISS Keps 4-18

Dave Larsen PhD doc at volcano.net
Sat Apr 18 10:52:29 PDT 2009


ISS
1 25544U 98067A   09108.52667130  .00010800  00000-0  84397-4 0  6977
2 25544 051.6408 252.7625 0008582 253.7918 187.6845 15.72234264596569



More information about the SAREX mailing list